www.pogodaiklimat.ru

Погода и климат >> Архив погоды >> Мьянма >> Лойко


ПОГОДА в Лойко

  • Прогноз погоды в Лойко
  • Монитор погоды в Лойко

АРХИВ ПОГОДЫ в Лойко

Время (UTC), дата Ветер
(напр.,м/с)
 
Видим.   Явления Облачность Т
(С)
Тd
(С)
f
(%)
Тe
(С)
Тes
(С)
Комфортность P
(гПа)
Po
(гПа)
Тmin
(С)
Tmax
(С)
R
(мм)
R24
(мм)
S
(см)
00 9.09 штиль 0 6000 м 9/6 300 м
[Cu Sc Ac As]
+22.0 +20.5 91 +28 +28 душно 1008.2 909.0 +20.5 0.0
03 9.09 штиль 0 7000 м 9/6 300 м
[Cu Sc Ac As]
+25.0 +21.9 83 +32 +35 очень
душно
1009.4 911.0
06 9.09 ЮЗ 1 8000 м 9/6 300 м
[Cu Sc Ac As]
+28.0 +23.3 76 +38 +42 очень
душно
1007.2 909.9
09 9.09 ЮВ 1 7000 м {морось} 9/6 300 м
[Cu Sc Ac As]
+26.0 +24.6 92 +37 +38 очень
душно
1007.6 909.7
12 9.09 штиль 0 6000 м 9/6 300 м
[Cu Sc Ac As]
+25.0 +23.3 90 +33 +33 очень
душно
1004.6 906.6 +28.0 0.0
00 10.09 штиль 0 6000 м 6/4 300 м
[Cu Sc Ac lent]
+22.0 +20.5 91 +28 +28 душно 1007.9 908.7 +20.5
03 10.09 ЮВ 1 8000 м 9/6 300 м
[Cu Sc Ac As]
+26.0 +22.9 83 +35 +37 очень
душно
1006.6 908.8
06 10.09 ЮВ 1 8000 м слаб. морось 9/6 300 м
[Frnb Ac As]
+26.0 +22.9 83 +35 +39 очень
душно
1006.3 908.5
09 10.09 штиль 0 7000 м слаб. морось {дождь} 9/6 300 м
[Frnb Ac As]
+26.0 +22.9 83 +35 +37 очень
душно
1004.8 907.1
12 10.09 штиль 0 6000 м {морось} 9/6 300 м
[Cu Sc Ac As]
+25.0 +21.9 83 +32 +32 очень
душно
1005.5 907.5 +27.0
00 11.09 штиль 0 6000 м {дождь, морось} 9/6 300 м
[Frnb Ac As]
+21.0 +21.0 100 +26 +26 душно 1009.4 909.7 +19.5 21
03 11.09 штиль 0 7000 м слаб. морось {дождь} 9/6 300 м
[Frnb Ac As]
+21.5 +21.5 100 +28 +31 очень
душно
1014.1 914.1
06 11.09 ЮЗ 1 7000 м {морось} 9/6 300 м
[Frnb Ac As]
+23.0 +23.0 100 +32 +36 очень
душно
1011.7 912.4
09 11.09 штиль 0 7000 м 9/6 300 м
[Cu Sc Ac As]
+24.0 +22.6 92 +31 +33 очень
душно
1009.7 910.9
12 11.09 штиль 0 6000 м 9/6 300 м
[Cu Sc Ac As]
+23.0 +21.4 91 +31 +31 очень
душно
1010.9 911.7 +25.0 0.0
00 12.09 штиль 0 6000 м {морось} 9/6 300 м
[Frnb Ac As]
+21.0 +19.5 91 +25 +26 комфорт 1012.8 912.8 +19.0 1
03 12.09 штиль 0 8000 м 9/6 300 м
[Cu Sc Ac As]
+23.0 +21.4 91 +31 +34 очень
душно
1013.2 913.8
06 12.09 ЮВ 1 8000 м 9/6 300 м
[Cu Sc Ac As]
+25.0 +21.9 83 +32 +37 очень
душно
1012.9 914.1
09 12.09 штиль 0 10 км 9/6 600 м
[Cu Sc Ac As]
+27.0 +24.0 84 +37 +39 очень
душно
1009.1 911.3
12 12.09 штиль 0 7000 м 9/6 300 м
[Cu Sc Ac As]
+25.0 +23.3 90 +33 +33 очень
душно
1009.9 911.4 +27.0
00 13.09 штиль 0 6000 м {морось} 9/6 300 м
[Frnb Ac As]
+21.0 +21.0 100 +26 +26 душно 1012.0 912.1 +20.0 0.0
03 13.09 штиль 0 7000 м слаб. морось 9/6 300 м
[Frnb Ac As]
+23.0 +21.4 91 +31 +34 очень
душно
1012.4 913.1
06 13.09 ЮЗ 1 8000 м {морось} 9/6 300 м
[Frnb Ac As]
+27.0 +22.6 77 +36 +40 очень
душно
1009.7 911.9
09 13.09 штиль 0 7000 м 8/6 300 м
[Cu Sc Ac cuf]
+28.0 +22.0 70 +36 +39 очень
душно
1006.8 909.6
12 13.09 штиль 0 6000 м 9/6 300 м
[Cu Sc Ac As]
+25.0 +23.3 90 +33 +33 очень
душно
1006.8 908.6 +28.0 0.0
00 14.09 штиль 0 6000 м 9/6 300 м
[Cu Sc Cs]
+21.0 +21.0 100 +26 +26 душно 1008.9 909.3 +19.5
03 14.09 штиль 0 10 км 6/6 600 м
[Cu Sc]
+25.0 +21.9 83 +32 +39 очень
душно
1010.2 911.7
06 14.09 штиль 0 10 км 9/6 600 м
[Cu Sc Ac As]
+27.0 +24.0 84 +37 +43 очень
душно
1008.6 910.9
09 14.09 штиль 0 10 км 8/5 600 м
[Cu Sc Ac cuf]
+30.8 +23.7 66 +42 +45 опасность
перегрева
1004.6 908.4
12 14.09 штиль 0 7000 м 8/5 300 м
[Cu Sc Ac lent]
+27.0 +24.0 84 +37 +37 очень
душно
1005.9 908.4 +31.0
00 15.09 штиль 0 6000 м 9/6 300 м
[Cu Sc Ac As]
+22.0 +20.5 91 +28 +28 душно 1010.2 910.8 +20.5
03 15.09 штиль 0 7000 м 6/6 300 м
[Cu Sc]
+25.0 +21.9 83 +32 +39 очень
душно
1009.2 910.8
06 15.09 ЮЗ 1 8000 м 6/6 300 м
[Cu Sc]
+27.0 +24.0 84 +37 +47 очень
душно
1008.4 910.7
09 15.09 штиль 0 7000 м 6/6 300 м
[Cu Sc]
+31.0 +23.7 65 +42 +46 опасность
перегрева
1004.6 908.5
12 15.09 штиль 0 6000 м 8/6 300 м
[Cu Sc Ac cuf]
+28.0 +25.0 84 +40 +40 очень
душно
1006.3 909.1 +31.0

 

Местоположение метеостанции Лойко (Мьянма): широта 19.68 долгота 97.22 высота над уровнем моря 895 м.

В архиве по умолчанию представлена погода в Лойко за последнюю неделю. Архивные данные за месяц целиком и за предыдущие месяцы, начиная с января 2011 года, Вы можете получить, выбрав интересующий диапазон дат из раскрывающегося списка и нажав кнопку "Ввод!".


*Определитесь, кто Вы:
робот инопланетянин человек

Внимание! Время в таблицах - всемирное. Для получения местного времени необходимо прибавить поправку, которая равна 6.5 ч.

Смотрите также архив погоды в соседних городах и на ближайших метеорологических станциях:

Погода в Мае Хонг Сон (Таиланд) (77 км)
Погода в Пьинмане (Мьянма) (105 км)
Погода в Таунгу (Мьянма) (116 км)
Погода в Таунджи (Мьянма) (124 км)
Погода в Намсаме (Мьянма) (145 км)
Погода в Мэй Сарьян (Таиланд) (184 км)
Погода на Дои Эн Ханг (Таиланд) (191 км)
Погода в Мейтхиле (Мьянма) (193 км)
Погода в Чиангмае (Таиланд) (210 км)
Погода в Лампхуне (Таиланд) (227 км)

Пояснения к столбцам:

Ветер - указаны скорость ветра в м/с - средняя за 10 мин, порывы в срок и между сроками (в фигурных скобках) и направление, откуда дует ветер: С - северный, СВ - северо-восточный, В - восточный, ЮВ - юго-восточный, Ю - южный, ЮЗ - юго-западный, З - западный, СЗ - северо-западный.
Видимость - горизонтальная дальность видимости в метрах или километрах. При видимости от 1 до 10 км при отсутствии осадков обычно наблюдается дымка, при ухудшении видимости до 1 км и менее - туман. В сухую погоду видимость может ухудшаться дымом, пылью или мглою.
Явления - указаны атмосферные явления, наблюдавшиеся в срок или в последний час перед сроком; фигурными скобками обозначены явления, наблюдавшиеся между сроками (за 1-3 часа до срока); квадратными скобками обозначены град или гололедные отложения с указанием их диаметра в мм.
Облачность - указаны через наклонную черту общая и нижняя облачность в баллах и высота нижней границы облаков в метрах; квадратными скобками обозначены формы облаков: Ci - перистые, Cs - перисто-слоистые, Cc - перисто-кучевые, Ac - высококучевые, As - высокослоистые, Sc - слоисто-кучевые, Ns - слоисто-дождевые, Cu - кучевые, Cb - кучево-дождевые. Подробнее классификацию облаков см. в Атласе облаков (PDF).
T - Температура воздуха - температура, измеренная на высоте 2 м над землей.
Td - Температура точки росы - температура, при понижении до которой содержащийся в воздухе водяной пар достигнет насыщения.
f - Относительная влажность воздуха - влажноcть воздуха, измеренная на высоте 2 м над землей.
Te - Эффективная температура - температура, которую ощущает одетый по сезону человек в тени. Характеристика душности погоды. При расчете учитывается влияние влажности воздуха и скорости ветра на теплоощущения человека.
Tes - Эффективная температура на солнце - температура, которую ощущает человек, с поправкой на солнечный нагрев. Характеристика знойности погоды. Зависит от высоты солнца над горизонтом, облачности и скорости ветра. Ночью, в пасмурную погоду, а также при ветре 12 м/с и более поправка равна нулю.
P - Атмосферное давление - приведенное к уровню моря атмосферное давление.
Po - Атмосферное давление - измеренное на уровне метеостанции атмосферное давление.
Tmin - Минимальная температура - минимум температуры воздуха на высоте 2 м над землей.
Tmax - Максимальная температура - максимум температуры воздуха на высоте 2 м над землей.
R - Количество осадков - Количество выпавших осадков за период времени, мм. При наведении курсора мыши на число - период времени, за который выпало указанное количество осадков.
R24 - Количество осадков - Количество выпавших осадков за 24 часа, мм.
S - Снежный покров - Высота снежного покрова, см. При наведении курсора мыши на число - состояние снежного покрова и степень покрытия местности в баллах.